Theta_e
314 313 313 312 312 312 311 310 310 310 309 310 310 310 310 310 310 311 311 312 313 315 316 317 317 318 321 322 324 326 327 325 321 315 314 311 311 311 312 307 308 309 304
312 310 309 311 311 310 309 308 308 307 307 307 306 306 307 307 307 307 308 309 310 311 312 313 314 315 317 318 320 321 323 325 316 311 310 309 308 306 306 308 307 306 305
313 311 309 308 307 308 308 306 307 306 305 305 304 304 304 305 305 306 306 307 308 308 309 310 311 313 313 314 317 318 318 319 313 311 309 309 307 306 305 306 307 307 308
314 312 310 308 307 307 306 306 305 305 305 305 304 304 304 304 304 304 304 305 306 306 307 308 308 310 310 310 312 313 313 311 310 309 309 309 308 308 308 307 303 304 308
314 313 311 309 308 308 306 305 305 304 304 303 303 303 303 303 303 303 302 302 303 304 304 303 303 305 306 307 309 310 310 309 309 307 306 305 307 307 306 303 305 308 308
312 313 311 310 310 309 307 307 305 304 303 302 303 302 302 302 302 301 301 301 301 301 302 303 304 305 305 306 306 307 308 306 306 304 307 305 304 306 307 307 307 309 308
312 311 309 308 308 308 308 306 305 305 303 304 304 303 302 302 301 301 300 301 302 302 302 304 305 306 305 304 305 305 305 305 305 304 306 304 304 305 306 308 309 309 310
311 309 307 307 307 306 305 304 305 305 305 306 306 305 304 304 301 301 301 301 303 303 303 304 304 304 305 306 305 306 304 304 306 304 305 306 307 308 308 309 310 311 310
311 309 308 307 307 306 305 305 304 305 305 306 306 306 305 303 301 302 302 303 303 303 304 304 302 302 303 303 303 304 305 305 305 306 307 307 307 307 309 309 309 309 308
310 309 309 307 307 306 306 306 305 304 304 304 305 305 304 303 302 301 302 302 302 303 302 302 303 304 304 303 305 306 305 305 305 307 307 306 306 307 308 307 307 308 307
310 309 309 306 307 307 306 305 304 303 303 304 304 303 303 304 302 301 302 302 303 302 303 305 305 305 306 307 305 307 307 306 307 309 309 310 310 310 309 308 307 304 305
309 309 308 308 307 306 306 304 303 303 303 303 303 303 303 303 302 301 301 301 302 302 303 305 306 307 301 306 304 304 305 307 307 306 307 309 309 309 308 307 306 306 306
309 308 308 308 306 306 306 306 304 304 304 304 304 305 303 303 303 301 301 301 301 301 301 301 302 307 307 308 305 304 304 306 306 305 305 306 306 306 305 305 304 306 307
310 310 309 309 307 307 307 307 307 307 306 305 305 306 305 305 304 303 303 303 302 302 303 302 300 305 303 305 308 309 308 307 306 306 306 305 304 304 304 305 305 306 306
310 310 310 309 308 308 307 308 308 306 306 307 307 306 307 307 307 307 306 306 305 304 302 301 302 302 305 307 308 307 308 308 306 305 305 304 304 305 305 304 304 304 304
311 311 311 310 310 309 308 308 308 306 305 305 306 307 307 306 305 306 308 309 308 308 305 305 306 306 308 310 308 307 306 306 306 306 306 303 303 303 303 304 305 305 306
311 311 312 312 311 310 309 310 309 310 309 309 307 306 308 308 308 308 308 309 310 309 307 308 308 308 309 310 310 308 306 305 305 305 306 305 305 305 305 306 306 306 306
312 313 313 312 312 312 312 312 311 311 310 309 309 308 308 309 309 309 309 308 309 309 308 308 308 310 310 309 306 305 305 306 306 305 305 305 306 306 307 306 305 304 303
312 313 312 312 312 313 313 313 311 311 310 309 308 308 309 309 309 310 308 309 309 309 310 309 309 308 309 308 307 304 305 307 306 306 307 307 307 306 305 304 303 302 301
312 312 312 312 312 312 312 312 312 311 311 310 311 311 310 308 308 309 307 307 309 309 307 305 306 305 304 305 306 305 305 306 309 308 307 306 305 304 303 302 301 299 297
313 313 313 312 312 311 311 311 311 311 310 310 310 311 312 311 307 306 306 306 307 306 305 306 307 308 308 307 306 305 306 308 309 308 306 305 304 302 301 299 297 295 295
315 314 314 312 312 311 312 311 310 310 310 310 310 310 311 312 309 307 306 305 306 306 307 307 306 307 307 308 308 307 307 306 306 305 304 302 300 298 297 297 296 295 295
310 311 313 312 313 312 311 310 310 311 312 311 310 310 310 309 310 309 307 307 307 307 307 307 307 308 308 308 307 307 305 303 303 302 301 299 298 297 296 295 295 295 295
300 301 302 304 306 308 308 309 313 312 311 311 312 311 310 308 309 310 310 310 309 309 309 309 310 310 306 306 304 303 302 301 300 298 296 296 295 295 295 295 295 295 295
291 291 292 292 293 294 296 298 301 301 311 312 312 311 311 310 311 311 311 311 310 311 311 309 307 305 303 301 300 299 297 295 295 294 294 294 294 294 295 294 294 295 295
289 289 289 288 288 288 289 290 292 295 294 302 308 308 308 309 309 309 307 307 308 305 303 303 303 301 301 298 296 295 296 295 293 292 292 292 291 291 291 291 291 291 291
Wind_Speed
5 5 6 6 5 7 9 8 8 9 8 9 9 10 10 9 10 12 13 14 13 14 13 12 11 11 14 18 23 27 33 23 10 10 20 25 30 34 25 22 16 15 11
3 5 5 4 3 4 6 7 7 7 6 5 6 7 8 10 9 8 10 9 9 9 8 6 6 8 9 12 19 22 30 31 29 27 26 30 30 22 19 15 17 10 7
4 4 4 6 7 7 5 3 3 5 5 5 6 5 4 3 6 7 6 6 5 5 6 8 10 10 11 11 15 18 18 27 34 31 26 28 26 22 19 9 6 6 6
8 7 8 8 7 6 6 5 2 1 2 4 4 2 0 3 4 3 4 5 5 7 10 13 14 15 17 17 17 19 24 26 28 31 30 24 23 19 15 10 5 5 8
5 8 5 6 7 7 6 4 3 3 2 2 2 3 3 2 4 5 6 7 8 7 7 6 6 9 11 18 22 24 27 29 26 25 21 21 15 19 18 16 15 11 11
5 6 8 7 6 5 6 3 5 5 4 4 3 5 5 5 8 5 6 8 9 10 9 7 5 7 4 4 10 21 25 29 27 22 18 17 13 12 12 14 15 16 10
8 9 7 6 4 4 5 5 6 6 6 7 10 7 7 8 5 3 4 4 5 7 7 6 6 12 15 16 15 19 19 18 25 28 23 20 19 20 18 21 24 20 17
10 10 9 6 4 3 2 3 7 8 8 9 11 12 7 9 7 5 5 5 10 9 9 6 4 7 11 16 19 19 19 19 17 21 22 22 13 16 24 23 18 17 16
13 12 12 8 6 4 4 6 5 5 2 4 4 15 8 9 8 5 1 3 4 4 2 4 7 9 10 11 13 16 16 17 17 16 12 11 10 7 9 11 12 12 10
13 14 13 10 9 9 6 9 9 7 3 2 7 6 9 9 10 9 5 3 1 2 2 7 7 8 8 8 7 8 10 8 9 12 12 11 12 11 12 13 15 15 14
14 13 11 12 11 10 6 6 6 6 7 11 11 5 1 3 10 11 11 7 1 9 9 12 8 6 8 6 10 8 5 3 4 5 6 10 16 17 18 19 18 20 25
16 14 15 15 15 13 12 4 7 8 8 8 7 7 16 11 13 11 12 5 12 12 12 8 9 9 12 14 13 13 12 11 11 11 11 10 11 15 17 19 21 23 26
18 19 20 17 14 17 15 14 12 10 11 10 11 11 13 14 15 17 16 18 15 16 18 20 18 11 6 10 19 20 18 17 17 17 17 17 17 18 19 22 25 27 28
23 22 21 21 19 18 17 18 18 17 17 17 17 20 20 18 18 19 21 23 24 24 25 24 21 20 18 16 11 17 23 21 21 21 21 19 16 18 21 20 16 15 20
25 25 24 22 21 20 21 21 22 21 18 19 16 14 12 14 19 21 23 24 25 25 22 20 21 23 21 18 17 15 17 19 21 23 23 23 23 23 25 26 26 25 25
27 25 26 24 23 23 22 23 23 23 21 21 18 12 17 21 20 19 18 21 24 20 19 21 21 20 21 22 21 21 21 22 26 25 23 25 27 27 26 25 26 28 28
29 27 25 27 25 26 27 24 23 27 30 26 28 26 19 13 15 15 17 20 22 23 21 23 22 25 24 26 27 27 28 29 28 28 30 30 30 31 31 30 29 17 15
33 28 31 25 27 28 27 28 27 23 26 33 33 34 31 26 21 19 19 20 21 24 25 26 25 23 23 23 22 22 27 30 32 34 35 35 25 21 17 7 3 6 11
33 29 32 30 29 27 31 28 26 26 27 28 29 29 36 34 30 26 23 23 28 29 32 32 32 31 30 28 27 27 27 26 26 20 18 14 12 9 5 2 3 7 11
36 34 32 32 32 27 27 27 23 28 30 30 26 29 29 36 36 36 33 30 32 32 32 31 31 30 32 34 33 32 31 24 8 9 6 5 5 3 2 6 10 12 16
32 31 37 34 28 30 28 28 27 25 26 27 30 29 33 35 42 40 42 42 41 39 35 35 34 30 32 34 32 30 17 13 13 11 10 8 6 5 6 8 11 10 12
23 24 24 30 30 26 27 26 29 30 26 27 31 33 35 40 37 36 40 41 44 44 41 36 34 31 24 24 26 27 22 19 18 14 9 5 4 4 6 6 7 10 12
9 5 3 13 15 17 23 26 28 30 28 28 28 24 25 36 33 34 33 36 39 42 41 34 28 18 15 17 16 19 19 14 11 7 5 5 4 3 5 8 8 10 14
21 19 18 9 12 13 12 18 23 20 19 18 12 5 4 12 27 35 39 41 40 33 26 28 25 21 21 19 16 13 10 9 5 4 4 2 4 4 5 7 11 15 18
26 23 19 17 16 16 15 16 17 22 25 27 17 10 11 8 8 12 26 27 26 27 31 32 28 29 23 21 19 14 9 6 5 3 0 3 3 4 8 13 18 20 19
27 25 24 23 23 23 22 20 18 16 17 13 12 11 8 11 5 4 3 15 25 26 31 32 31 28 25 16 13 12 9 4 0 1 3 2 2 5 11 13 14 15 12
Wind_Direction
57 74 79 66 46 21 9 19 16 17 16 4 354 346 342 332 321 309 302 297 289 284 281 275 265 251 231 223 219 212 213 200 163 158 173 160 166 170 170 169 188 191 187
72 83 89 101 79 46 31 13 11 16 20 23 14 5 348 336 331 316 303 289 281 270 260 248 240 233 226 220 221 215 207 201 158 137 134 142 150 163 156 172 166 192 215
152 121 99 115 114 114 108 77 21 4 12 21 17 19 11 331 312 302 286 272 244 214 188 183 153 167 147 160 181 182 179 175 154 147 130 123 131 144 152 163 179 229 251
191 169 141 140 130 130 135 145 138 36 350 350 351 6 27 169 184 223 235 209 178 158 147 143 134 127 121 119 123 145 149 138 138 135 133 137 143 143 153 166 180 221 251
208 187 183 161 151 148 150 168 163 185 209 235 259 272 273 183 179 179 192 192 189 177 157 138 102 106 103 96 99 104 120 116 110 107 112 128 148 169 178 185 201 231 261
188 166 160 176 185 201 204 239 207 198 208 191 221 245 221 255 267 219 224 231 239 242 239 238 213 203 164 146 116 98 112 110 111 114 112 138 170 178 185 194 211 225 238
195 203 210 196 206 216 211 220 246 235 227 232 231 239 236 230 249 222 214 215 236 242 224 196 192 171 156 143 136 134 135 125 127 140 155 165 175 180 198 224 226 234 233
204 223 220 218 217 233 273 295 279 262 262 266 242 233 224 223 194 145 170 221 290 263 254 229 158 141 144 147 145 132 135 146 142 162 171 179 205 223 228 229 229 227 237
195 216 217 218 206 230 250 252 257 251 227 344 248 228 212 194 173 148 108 356 267 276 323 150 129 139 137 127 134 144 158 172 185 200 198 205 210 220 216 211 216 234 258
203 213 212 221 219 233 266 267 238 224 182 54 73 166 185 204 195 171 185 165 241 161 116 218 226 206 247 247 235 216 204 203 198 199 219 244 263 261 257 262 260 250 247
209 214 228 220 222 213 219 286 218 211 255 269 278 252 219 170 217 205 189 165 5 202 245 271 294 279 251 223 239 237 236 240 235 241 255 259 245 255 256 257 260 252 249
207 213 217 214 218 209 204 193 168 200 240 241 252 245 234 236 216 211 197 255 208 239 275 287 292 284 252 241 234 243 250 262 266 273 276 275 267 258 266 269 269 265 260
203 205 208 209 212 206 208 201 189 190 216 235 246 241 215 219 215 216 213 204 238 253 263 278 274 281 285 262 248 249 254 261 266 269 267 266 265 267 270 275 276 275 269
202 206 205 209 209 213 213 216 217 218 227 240 248 243 235 224 222 221 229 233 243 250 261 269 254 269 281 282 270 251 246 248 253 256 258 262 261 262 272 275 268 263 247
205 206 208 214 210 213 217 219 221 225 221 221 229 238 221 216 225 232 235 240 247 252 253 256 263 271 273 262 255 252 245 244 248 248 248 248 249 251 257 261 266 270 272
202 208 211 216 217 217 218 227 230 234 232 230 226 239 250 254 254 242 245 256 256 255 248 250 256 259 258 261 254 250 249 247 246 247 249 248 250 254 256 261 266 272 272
206 210 213 214 213 216 217 220 224 236 238 243 236 235 243 235 236 245 248 251 250 240 236 245 253 257 254 258 253 250 248 246 250 249 249 250 251 255 258 261 266 255 277
214 215 218 218 221 224 225 222 224 229 228 230 234 232 236 242 247 251 260 265 239 228 235 240 249 255 257 265 265 261 255 253 250 246 245 246 245 252 247 228 311 326 324
211 213 219 225 231 229 231 227 225 222 218 222 229 234 234 237 239 240 243 242 227 229 234 241 246 245 249 254 258 263 268 264 259 249 232 200 174 179 167 208 274 297 308
209 213 220 225 232 237 237 230 227 213 217 218 221 233 229 226 230 226 228 230 231 236 238 243 248 249 247 247 250 254 262 272 237 160 156 177 168 187 266 299 307 319 322
210 215 219 225 227 230 234 236 232 228 224 225 232 230 232 224 221 222 226 228 232 234 235 239 244 246 247 251 252 253 237 221 210 211 206 202 226 267 281 291 315 317 313
201 204 217 219 224 227 233 234 239 239 232 223 228 236 232 229 222 219 222 227 233 239 240 240 244 248 253 258 258 247 212 180 177 182 186 215 261 286 301 307 300 305 302
46 359 307 341 327 271 245 240 241 247 249 248 252 247 237 217 221 222 221 227 231 238 242 240 244 243 219 184 173 178 168 164 170 191 236 242 249 267 281 293 296 288 286
51 46 36 343 323 322 319 304 289 261 251 246 244 258 77 245 227 217 223 228 230 231 234 243 230 213 184 172 171 169 162 160 167 151 159 212 252 254 277 291 295 300 301
48 48 42 25 17 16 10 355 345 334 284 254 266 273 276 315 329 264 243 229 216 209 203 196 175 163 172 167 153 149 139 127 126 124 257 243 221 268 295 305 310 305 303
48 45 41 38 32 27 21 16 9 0 345 312 247 253 264 257 265 49 175 181 175 172 162 159 158 158 156 157 143 135 125 131 282 249 206 229 281 312 323 324 329 331 334